Wind_Speed
13 13 13 13 13 13 14 14 13 14 14 13 13 14 15 18 20 22 24 26 27 28 31 36 38 39 38 35 33 30 27 26 28 30 33 36 39 42 44 46 48 49 49 49
13 12 13 13 13 13 13 13 12 12 12 12 13 13 15 17 19 20 22 23 25 26 29 32 33 33 32 29 25 21 17 16 17 19 22 25 28 30 33 35 37 39 42 42
12 12 13 13 13 13 12 12 12 12 11 11 11 12 14 16 18 19 20 21 23 23 25 28 29 28 27 24 20 15 11 10 10 12 15 16 17 20 23 25 28 31 34 36
13 13 13 12 13 13 13 13 12 11 10 9 10 12 14 16 17 18 19 20 20 21 22 24 25 25 24 22 17 13 9 5 5 6 8 11 12 15 17 20 23 25 28 30
14 14 14 13 13 14 13 13 12 11 10 9 9 12 14 16 17 18 18 18 19 19 20 21 21 22 22 20 17 13 10 5 1 2 4 7 9 13 16 18 18 20 23 26
16 15 15 14 14 14 14 14 13 12 11 10 10 12 14 15 17 17 17 17 18 18 18 18 18 19 20 18 17 14 11 8 5 2 3 5 6 8 10 12 15 18 19 22
17 16 16 15 15 15 15 14 13 12 11 11 11 12 14 16 16 17 17 17 17 17 16 16 16 17 18 17 16 14 12 10 8 5 3 2 3 4 6 9 12 14 17 19
19 18 18 16 16 17 16 15 14 13 12 12 13 14 15 16 16 16 16 16 16 15 14 14 14 15 16 15 15 13 11 9 8 6 4 2 1 3 5 7 10 12 15 17
21 20 19 19 18 18 18 17 16 15 15 14 15 15 16 16 16 16 16 15 14 13 12 12 12 13 13 14 14 14 12 11 9 7 6 4 3 3 5 7 9 12 14 17
21 22 22 21 20 20 19 19 18 17 17 16 17 17 17 17 16 16 15 14 13 12 10 10 10 11 12 12 12 12 12 11 10 9 8 7 7 7 8 10 12 14 16 19
23 23 23 22 22 22 21 21 20 20 19 19 18 18 17 17 16 15 15 14 13 11 10 9 9 10 10 11 11 12 12 11 11 10 10 10 10 11 12 13 15 17 19 22
24 25 25 24 24 24 24 23 22 21 21 20 19 19 18 17 16 15 15 14 12 11 10 9 9 10 10 11 12 13 13 13 13 13 13 13 13 14 15 16 18 20 22 25
24 25 26 26 27 27 26 25 24 23 22 22 21 20 19 18 17 16 15 14 13 12 11 10 10 10 11 13 14 14 15 15 15 15 15 15 15 16 18 20 21 24 26 28
24 25 25 27 28 28 28 28 26 25 24 24 23 21 20 18 17 16 15 14 13 13 12 12 12 12 13 14 15 16 16 16 16 17 17 17 18 20 21 23 25 27 29 32
24 24 25 26 27 29 29 29 28 27 26 25 24 23 21 19 18 17 16 15 14 14 13 13 13 14 15 16 17 17 17 18 18 18 19 20 21 23 24 26 28 30 32 35
24 24 24 25 27 28 29 29 28 28 27 26 25 24 22 21 19 18 17 16 16 15 15 15 15 16 17 17 18 18 19 19 20 20 21 22 24 25 27 29 31 33 35 38
23 24 24 25 26 27 28 28 28 28 28 27 25 24 23 22 21 19 18 18 17 17 17 17 18 18 18 19 19 20 20 21 22 23 24 25 26 28 29 31 33 35 37 40
23 24 24 25 25 26 27 28 28 28 27 26 25 24 24 22 22 21 20 19 19 18 18 19 19 19 20 20 21 21 22 23 24 25 26 27 29 30 32 33 35 37 39 42
22 23 24 24 25 26 26 26 27 27 27 26 25 25 24 23 22 22 21 21 20 20 20 20 20 21 21 21 22 23 23 24 26 27 28 29 31 32 34 35 37 38 41 43
19 20 21 23 23 24 25 25 25 25 25 25 25 25 25 24 23 23 22 22 22 21 21 21 22 22 22 22 23 24 25 26 27 28 29 31 32 34 35 36 38 40 42 44
17 17 18 18 20 21 22 23 23 23 24 24 25 25 25 25 24 24 24 23 23 22 22 23 23 23 23 23 24 25 26 27 28 29 31 32 33 35 36 37 39 41 43 46
15 15 16 16 17 19 20 21 22 23 23 23 24 24 24 25 25 25 25 25 24 24 24 24 23 23 24 24 25 26 27 28 29 31 32 33 34 35 36 38 40 42 45 47
15 15 15 15 16 17 19 20 21 23 23 24 24 24 24 24 24 25 25 25 25 25 25 24 24 24 24 25 26 27 28 29 30 32 33 34 35 36 37 39 41 43 46 48
16 16 17 17 17 18 19 20 21 23 24 24 25 25 25 25 25 24 25 25 25 25 25 24 24 24 25 26 27 28 29 30 32 33 34 34 35 36 38 40 42 44 47 49
18 18 18 18 19 19 20 20 21 22 22 23 24 25 25 25 25 24 24 24 24 25 25 25 26 26 27 28 29 30 31 32 32 33 34 35 35 37 39 41 43 45 48 49
23 23 22 22 22 22 22 22 22 23 23 23 23 24 24 25 26 26 26 25 26 26 27 27 28 28 29 29 30 31 31 32 33 34 34 35 36 38 40 42 44 46 48 50
29 28 28 28 27 27 26 25 25 25 25 25 25 24 24 25 26 27 27 28 28 29 29 29 29 29 29 30 30 31 32 32 33 34 35 35 37 38 40 42 44 47 49 50
Wind_Direction
193 198 206 215 225 233 240 245 247 250 252 259 272 283 290 296 299 300 303 308 312 315 318 319 320 321 320 314 308 300 289 277 264 255 251 249 248 247 245 244 244 244 246 248
204 210 219 229 237 241 242 242 241 241 245 256 273 285 295 303 305 307 311 316 320 323 326 329 331 331 331 326 320 314 299 282 269 257 249 245 243 242 240 239 239 241 243 246
216 223 231 239 244 243 240 236 232 234 244 260 276 291 303 309 314 317 320 323 326 329 334 337 340 341 343 342 336 332 318 290 267 251 240 235 232 234 234 234 237 240 243 245
227 234 240 241 241 237 234 231 227 230 244 262 280 300 310 315 320 324 327 329 332 336 340 344 347 349 351 352 351 348 343 327 268 238 217 210 214 217 221 227 233 238 242 246
236 241 244 241 236 230 228 227 226 233 247 267 291 308 318 324 325 328 333 335 337 339 342 347 352 357 360 3 6 8 10 15 25 188 197 201 206 211 214 221 228 238 242 246
241 242 242 237 231 227 226 227 230 239 255 275 296 311 320 324 327 329 334 337 341 342 344 348 355 2 7 12 18 22 25 28 45 83 153 175 194 206 216 223 229 238 245 252
241 239 239 235 228 225 227 230 236 248 263 278 292 307 316 321 325 329 332 337 340 345 349 353 357 3 9 18 25 31 35 40 43 48 67 118 168 201 224 234 242 248 256 261
241 239 237 234 230 228 231 235 242 253 264 276 288 300 309 317 322 327 331 334 338 342 349 355 1 7 15 23 28 32 35 40 45 50 55 73 187 239 253 257 261 266 272 277
240 239 237 235 232 231 234 240 246 254 263 274 285 296 304 310 316 322 326 329 334 338 343 354 2 10 19 24 27 31 35 39 40 38 33 21 353 319 299 296 295 294 294 296
239 239 238 236 234 234 237 242 247 254 263 272 282 291 298 303 309 316 319 322 326 331 336 345 355 3 10 16 20 23 25 25 23 17 9 359 346 333 323 315 309 306 305 304
239 240 240 239 238 238 240 243 248 254 261 270 278 286 291 296 302 309 313 315 317 320 325 332 342 349 355 359 2 4 4 2 359 354 348 342 335 328 322 318 315 312 310 308
242 242 242 242 241 240 241 244 248 253 260 268 274 280 284 289 293 301 306 309 309 310 312 317 325 334 341 345 348 350 350 348 346 343 338 334 329 324 321 317 315 313 312 312
243 243 244 243 243 243 243 245 249 254 259 266 271 276 280 283 287 293 298 300 301 301 301 305 313 322 329 335 337 338 338 337 335 333 330 326 323 321 319 317 316 316 316 316
246 245 246 246 245 246 246 247 250 255 259 264 268 272 275 278 282 286 290 291 294 295 294 296 303 312 318 322 326 328 328 328 327 326 324 322 320 319 318 318 318 318 318 319
250 249 249 249 249 248 248 249 251 254 258 262 266 268 269 272 276 278 281 284 288 290 290 292 297 305 310 313 318 321 322 323 322 321 320 319 319 319 319 319 320 320 320 321
255 253 251 251 251 251 250 250 252 253 256 259 262 264 265 268 271 273 274 278 283 284 285 288 294 299 304 307 311 315 316 318 318 318 318 318 319 319 320 320 320 320 321 322
257 256 254 253 253 252 251 251 252 253 255 257 260 261 262 263 265 268 271 274 279 281 283 287 291 295 299 303 306 309 312 314 316 316 317 318 318 319 319 320 320 320 321 323
259 259 258 256 255 254 253 252 252 254 255 256 258 258 259 260 262 265 269 272 276 279 282 286 289 293 296 300 302 305 309 312 313 314 315 316 317 319 319 320 321 321 322 323
261 261 259 257 256 255 254 253 253 254 255 255 255 256 257 258 260 263 267 270 273 277 281 284 288 292 295 297 300 303 306 309 312 313 314 315 317 318 319 320 321 322 323 324
261 261 261 259 257 255 253 253 253 255 255 255 255 255 255 256 259 262 266 269 271 275 280 283 286 289 292 295 299 302 305 308 310 312 314 315 317 318 319 320 321 323 324 325
265 264 263 261 257 255 253 252 253 254 256 256 256 255 255 257 259 261 264 267 269 273 278 282 285 287 290 294 298 302 305 308 310 312 314 315 317 318 319 320 322 323 324 325
268 269 267 263 258 256 254 253 253 254 255 256 256 256 256 257 259 260 262 265 268 271 276 281 283 286 289 294 297 301 305 308 310 312 314 315 317 318 319 321 322 323 324 326
268 268 268 266 263 260 258 257 256 255 255 255 256 256 256 257 258 260 262 265 268 272 275 278 281 284 289 294 298 301 305 308 310 312 314 316 317 318 320 321 323 324 325 327
270 271 271 270 269 267 264 261 259 258 258 258 258 257 257 258 259 261 263 265 268 270 272 275 279 284 290 294 297 301 304 307 310 312 314 316 317 319 320 321 323 324 326 327
274 274 274 274 274 274 272 270 266 262 261 261 260 258 258 257 258 260 263 265 265 267 270 273 278 284 288 292 296 301 304 307 310 312 314 316 317 319 321 322 324 325 327 327
273 274 274 273 274 275 274 273 272 270 267 264 263 261 259 258 258 258 259 261 264 267 270 273 277 281 285 290 294 299 303 306 309 312 314 316 317 319 321 322 324 326 327 328
271 272 273 273 273 273 272 272 271 271 269 267 266 264 262 260 259 259 259 261 263 266 269 273 277 280 284 289 293 298 301 305 308 311 313 315 317 319 321 323 325 326 327 328
Height
5642 5645 5647 5650 5652 5654 5656 5658 5660 5661 5661 5662 5662 5662 5661 5659 5657 5654 5650 5646 5642 5636 5630 5622 5613 5603 5592 5582 5573 5566 5562 5559 5560 5563 5567 5572 5577 5584 5590 5597 5605 5612 5618 5623
5641 5643 5645 5647 5649 5651 5653 5654 5656 5656 5657 5658 5658 5657 5656 5654 5651 5648 5644 5640 5635 5629 5623 5616 5606 5597 5587 5577 5569 5562 5558 5556 5556 5558 5561 5566 5571 5576 5583 5590 5596 5603 5609 5614
5640 5641 5643 5646 5647 5648 5649 5651 5652 5653 5655 5655 5654 5653 5651 5649 5645 5642 5638 5634 5630 5624 5618 5611 5603 5594 5585 5577 5569 5563 5559 5556 5556 5557 5559 5563 5568 5573 5578 5585 5591 5597 5602 5607
5637 5640 5641 5645 5643 5644 5646 5647 5649 5650 5651 5651 5650 5649 5646 5644 5641 5637 5633 5630 5625 5620 5615 5609 5602 5594 5586 5578 5571 5566 5562 5559 5558 5558 5560 5563 5567 5572 5578 5583 5588 5593 5597 5601
5634 5636 5638 5640 5640 5641 5643 5644 5645 5646 5647 5647 5646 5644 5642 5640 5636 5633 5630 5626 5622 5618 5613 5607 5601 5595 5587 5580 5575 5570 5566 5563 5561 5561 5563 5566 5569 5573 5577 5582 5586 5590 5594 5597
5631 5632 5634 5637 5637 5638 5640 5641 5642 5643 5643 5643 5642 5641 5639 5636 5633 5630 5627 5623 5619 5615 5611 5606 5601 5596 5590 5584 5578 5574 5570 5568 5567 5566 5567 5569 5572 5575 5578 5582 5585 5588 5591 5593
5627 5628 5630 5632 5633 5635 5638 5639 5639 5639 5639 5639 5638 5638 5636 5633 5630 5627 5624 5621 5617 5614 5610 5606 5601 5597 5592 5587 5582 5579 5576 5574 5572 5572 5572 5573 5575 5577 5580 5582 5584 5586 5587 5588
5622 5625 5629 5628 5629 5632 5633 5634 5635 5635 5635 5635 5635 5634 5632 5630 5627 5624 5621 5618 5615 5612 5609 5606 5602 5598 5594 5590 5586 5583 5581 5579 5577 5577 5577 5577 5578 5579 5580 5581 5582 5583 5584 5584
5619 5622 5622 5623 5625 5627 5628 5630 5631 5631 5632 5632 5631 5630 5628 5626 5624 5622 5619 5616 5614 5611 5608 5605 5602 5599 5596 5592 5590 5587 5584 5583 5581 5580 5580 5580 5580 5580 5580 5580 5580 5580 5580 5579
5614 5615 5617 5618 5620 5622 5624 5625 5626 5627 5627 5627 5627 5626 5624 5623 5621 5619 5617 5614 5612 5610 5607 5605 5602 5600 5597 5594 5592 5589 5587 5585 5584 5583 5582 5581 5580 5579 5579 5578 5577 5577 5575 5574
5608 5610 5612 5614 5615 5617 5619 5620 5621 5622 5622 5623 5622 5621 5620 5619 5617 5616 5614 5611 5609 5608 5606 5604 5602 5599 5597 5595 5593 5590 5588 5586 5585 5583 5582 5580 5579 5578 5577 5575 5574 5572 5570 5568
5603 5605 5607 5608 5609 5611 5613 5614 5615 5616 5617 5617 5617 5617 5616 5615 5613 5612 5610 5609 5607 5605 5603 5602 5600 5598 5596 5594 5592 5590 5588 5586 5584 5582 5580 5579 5577 5575 5574 5572 5570 5567 5565 5561
5596 5598 5600 5602 5603 5604 5606 5608 5610 5611 5611 5612 5612 5612 5611 5610 5609 5608 5607 5605 5604 5602 5601 5599 5598 5596 5594 5592 5590 5588 5586 5584 5582 5580 5578 5576 5574 5572 5570 5568 5565 5561 5558 5554
5590 5591 5593 5595 5596 5598 5600 5602 5603 5604 5605 5606 5606 5606 5606 5605 5604 5603 5603 5601 5600 5599 5598 5597 5595 5594 5592 5590 5588 5586 5584 5582 5579 5577 5575 5573 5570 5568 5565 5562 5559 5555 5551 5546
5583 5585 5587 5588 5589 5591 5593 5595 5596 5598 5598 5599 5600 5600 5600 5600 5599 5599 5598 5597 5596 5595 5594 5593 5592 5591 5589 5587 5585 5583 5581 5578 5576 5574 5571 5569 5566 5563 5559 5556 5552 5547 5543 5538
5576 5578 5580 5581 5582 5584 5585 5587 5589 5590 5591 5592 5593 5593 5594 5594 5594 5593 5593 5593 5592 5591 5590 5589 5588 5587 5585 5583 5581 5579 5577 5575 5572 5569 5567 5564 5560 5557 5553 5549 5545 5540 5535 5529
5570 5571 5572 5574 5575 5576 5578 5580 5581 5583 5584 5585 5586 5587 5587 5587 5587 5588 5588 5587 5587 5586 5586 5585 5584 5582 5581 5579 5577 5575 5573 5570 5567 5564 5561 5558 5554 5551 5546 5542 5537 5532 5527 5521
5563 5564 5565 5566 5568 5569 5570 5572 5574 5575 5577 5578 5579 5579 5580 5581 5581 5582 5582 5582 5582 5581 5580 5580 5578 5577 5576 5574 5572 5570 5567 5565 5562 5559 5556 5552 5548 5544 5540 5535 5530 5524 5518 5512
5556 5557 5558 5559 5560 5562 5563 5565 5566 5568 5569 5570 5571 5572 5573 5574 5575 5575 5576 5576 5576 5575 5575 5574 5573 5572 5570 5568 5567 5564 5562 5559 5556 5553 5549 5546 5542 5537 5532 5527 5522 5516 5510 5503
5550 5551 5551 5552 5553 5554 5556 5557 5559 5560 5561 5563 5564 5565 5566 5567 5568 5568 5569 5569 5569 5569 5569 5568 5567 5566 5564 5562 5560 5558 5556 5553 5550 5547 5543 5539 5535 5530 5525 5520 5514 5508 5502 5495
5545 5545 5545 5546 5546 5547 5548 5550 5551 5553 5554 5555 5556 5557 5559 5560 5561 5561 5562 5563 5563 5563 5562 5561 5560 5559 5558 5556 5554 5552 5549 5546 5543 5540 5536 5532 5527 5522 5517 5512 5506 5500 5493 5486
5540 5540 5540 5540 5540 5541 5542 5543 5545 5546 5547 5548 5549 5550 5551 5552 5553 5554 5555 5555 5556 5555 5555 5554 5553 5552 5551 5549 5547 5545 5543 5540 5536 5533 5529 5524 5520 5515 5509 5504 5498 5492 5485 5477
5535 5535 5535 5535 5535 5536 5536 5537 5538 5539 5540 5541 5542 5543 5544 5545 5546 5547 5548 5548 5548 5548 5548 5547 5546 5545 5544 5542 5540 5538 5535 5532 5529 5525 5521 5517 5512 5507 5502 5496 5490 5483 5476 5469
5530 5530 5530 5530 5530 5530 5531 5531 5531 5532 5533 5534 5534 5535 5536 5538 5539 5539 5540 5541 5541 5541 5540 5540 5539 5538 5537 5535 5533 5530 5528 5525 5521 5517 5513 5509 5504 5499 5494 5488 5482 5475 5468 5460
5525 5525 5525 5525 5525 5525 5525 5525 5525 5525 5526 5526 5527 5528 5529 5530 5531 5532 5532 5533 5533 5533 5533 5532 5532 5530 5529 5527 5525 5523 5520 5517 5514 5510 5506 5501 5496 5491 5486 5480 5474 5467 5459 5451
5518 5518 5518 5519 5519 5519 5518 5518 5518 5519 5519 5519 5520 5520 5521 5522 5523 5524 5524 5525 5525 5525 5525 5524 5524 5523 5521 5519 5517 5515 5512 5509 5506 5502 5498 5494 5489 5484 5478 5472 5466 5458 5451 5442
5510 5510 5510 5510 5511 5511 5511 5511 5511 5511 5511 5512 5512 5513 5513 5514 5515 5515 5516 5516 5517 5517 5516 5516 5515 5514 5513 5511 5509 5507 5504 5501 5498 5494 5490 5486 5481 5476 5470 5464 5457 5450 5442 5434